Time,TemperatureF,DewpointF,PressureIn,WindDirection,WindDirectionDegrees,WindSpeedMPH,WindSpeedGustMPH,Humidity,HourlyPrecipIn,Conditions,Clouds,dailyrainin,SoftwareType,DateUTC
2015-05-03 00:00:00,66.3,27.4,29.55,ESE,120,0.0,0.0,23,0.00,,,0.00,Wunderground v.1.12,2015-05-03 06:00:00,
2015-05-03 00:05:00,66.3,28.4,29.55,ESE,119,0.0,0.0,24,0.00,,,0.00,Wunderground v.1.12,2015-05-03 06:05:00,
2015-05-03 00:10:00,66.0,28.1,29.55,ESE,115,0.0,2.0,24,0.00,,,0.00,Wunderground v.1.12,2015-05-03 06:10:00,
2015-05-03 00:15:00,65.5,27.7,29.55,ESE,115,1.0,2.0,24,0.00,,,0.00,Wunderground v.1.12,2015-05-03 06:15:00,
2015-05-03 00:20:00,65.3,27.5,29.55,ESE,122,2.0,2.0,24,0.00,,,0.00,Wunderground v.1.12,2015-05-03 06:20:00,
2015-05-03 00:30:00,65.8,26.9,29.56,SE,128,0.0,0.0,23,0.00,,,0.00,Wunderground v.1.12,2015-05-03 06:30:00,
2015-05-03 00:35:00,65.8,29.0,29.56,SE,128,0.0,0.0,25,0.00,,,0.00,Wunderground v.1.12,2015-05-03 06:35:00,
2015-05-03 00:40:00,65.3,28.5,29.56,SE,127,0.0,0.0,25,0.00,,,0.00,Wunderground v.1.12,2015-05-03 06:40:00,
2015-05-03 00:45:00,64.8,28.1,29.56,SE,128,0.0,0.0,25,0.00,,,0.00,Wunderground v.1.12,2015-05-03 06:45:00,
2015-05-03 00:50:00,64.3,27.7,29.56,SE,128,0.0,0.0,25,0.00,,,0.00,Wunderground v.1.12,2015-05-03 06:50:00,
2015-05-03 00:55:00,64.0,27.4,29.56,SE,128,0.0,0.0,25,0.00,,,0.00,Wunderground v.1.12,2015-05-03 06:55:00,
2015-05-03 01:00:00,63.7,28.1,29.56,SE,128,0.0,0.0,26,0.00,,,0.00,Wunderground v.1.12,2015-05-03 07:00:00,
2015-05-03 01:05:00,63.4,27.9,29.56,SE,128,0.0,0.0,26,0.00,,,0.00,Wunderground v.1.12,2015-05-03 07:05:00,
2015-05-03 01:15:00,63.2,28.6,29.56,SE,128,0.0,0.0,27,0.00,,,0.00,Wunderground v.1.12,2015-05-03 07:15:00,
2015-05-03 01:20:00,62.9,28.4,29.56,SE,128,0.0,0.0,27,0.00,,,0.00,Wunderground v.1.12,2015-05-03 07:20:00,
2015-05-03 01:25:00,62.7,28.2,29.56,SE,128,0.0,0.0,27,0.00,,,0.00,Wunderground v.1.12,2015-05-03 07:25:00,
2015-05-03 01:30:00,62.4,28.8,29.56,SE,127,0.0,0.0,28,0.00,,,0.00,Wunderground v.1.12,2015-05-03 07:30:00,
2015-05-03 01:35:00,62.0,28.5,29.56,SE,128,0.0,0.0,28,0.00,,,0.00,Wunderground v.1.12,2015-05-03 07:35:00,
2015-05-03 01:40:00,61.5,27.2,29.56,SE,127,0.0,0.0,27,0.00,,,0.00,Wunderground v.1.12,2015-05-03 07:40:00,
2015-05-03 01:45:00,61.2,27.8,29.56,SE,127,0.0,0.0,28,0.00,,,0.00,Wunderground v.1.12,2015-05-03 07:45:00,
2015-05-03 01:55:00,60.5,26.3,29.55,SE,127,0.0,0.0,27,0.00,,,0.00,Wunderground v.1.12,2015-05-03 07:55:00,
2015-05-03 02:00:00,60.5,27.2,29.55,SE,127,0.0,0.0,28,0.00,,,0.00,Wunderground v.1.12,2015-05-03 08:00:00,
2015-05-03 02:05:00,60.9,27.5,29.55,SE,127,0.0,0.0,28,0.00,,,0.00,Wunderground v.1.12,2015-05-03 08:05:00,
2015-05-03 02:10:00,61.0,27.6,29.56,SE,127,0.0,0.0,28,0.00,,,0.00,Wunderground v.1.12,2015-05-03 08:10:00,
2015-05-03 02:15:00,61.2,27.8,29.56,SE,127,0.0,0.0,28,0.00,,,0.00,Wunderground v.1.12,2015-05-03 08:15:00,
2015-05-03 02:20:00,61.0,26.7,29.56,SE,128,0.0,0.0,27,0.00,,,0.00,Wunderground v.1.12,2015-05-03 08:20:00,
2015-05-03 02:25:00,60.7,27.4,29.56,SE,127,0.0,0.0,28,0.00,,,0.00,Wunderground v.1.12,2015-05-03 08:25:00,
2015-05-03 02:30:00,60.4,28.0,29.56,SE,127,0.0,0.0,29,0.00,,,0.00,Wunderground v.1.12,2015-05-03 08:30:00,
2015-05-03 02:35:00,59.9,28.4,29.56,ESE,109,0.0,0.0,30,0.00,,,0.00,Wunderground v.1.12,2015-05-03 08:35:00,
2015-05-03 02:45:00,59.5,28.8,29.56,East,92,0.0,3.0,31,0.00,,,0.00,Wunderground v.1.12,2015-05-03 08:45:00,
2015-05-03 02:50:00,59.6,28.1,29.56,East,81,1.0,4.0,30,0.00,,,0.00,Wunderground v.1.12,2015-05-03 08:50:00,
2015-05-03 02:55:00,60.1,28.5,29.55,East,79,2.0,2.0,30,0.00,,,0.00,Wunderground v.1.12,2015-05-03 08:55:00,
2015-05-03 03:00:00,60.1,28.5,29.55,East,79,1.0,1.0,30,0.00,,,0.00,Wunderground v.1.12,2015-05-03 09:00:00,
2015-05-03 03:05:00,60.1,27.7,29.55,ENE,78,0.0,3.0,29,0.00,,,0.00,Wunderground v.1.12,2015-05-03 09:05:00,
2015-05-03 03:10:00,60.5,28.1,29.55,ENE,74,3.0,4.0,29,0.00,,,0.00,Wunderground v.1.12,2015-05-03 09:10:00,
2015-05-03 03:15:00,61.0,27.6,29.55,ENE,71,5.0,6.0,28,0.00,,,0.00,Wunderground v.1.12,2015-05-03 09:15:00,
2015-05-03 03:20:00,61.2,27.8,29.55,ENE,78,6.0,6.0,28,0.00,,,0.00,Wunderground v.1.12,2015-05-03 09:20:00,
2015-05-03 03:25:00,61.0,28.5,29.55,ENE,72,5.0,5.0,29,0.00,,,0.00,Wunderground v.1.12,2015-05-03 09:25:00,
2015-05-03 03:30:00,60.7,28.2,29.55,ENE,69,2.0,3.0,29,0.00,,,0.00,Wunderground v.1.12,2015-05-03 09:30:00,
2015-05-03 03:40:00,60.5,28.1,29.55,ENE,74,4.0,7.0,29,0.00,,,0.00,Wunderground v.1.12,2015-05-03 09:40:00,
2015-05-03 03:45:00,60.5,28.1,29.55,ENE,77,5.0,5.0,29,0.00,,,0.00,Wunderground v.1.12,2015-05-03 09:45:00,
2015-05-03 03:50:00,60.5,28.1,29.55,ENE,66,5.0,5.0,29,0.00,,,0.00,Wunderground v.1.12,2015-05-03 09:50:00,
2015-05-03 03:55:00,60.2,29.4,29.55,ENE,65,2.0,2.0,31,0.00,,,0.00,Wunderground v.1.12,2015-05-03 09:55:00,
2015-05-03 04:00:00,59.8,29.9,29.55,ENE,65,0.0,0.0,32,0.00,,,0.00,Wunderground v.1.12,2015-05-03 10:00:00,
2015-05-03 04:05:00,59.3,29.4,29.55,ENE,65,0.0,0.0,32,0.00,,,0.00,Wunderground v.1.12,2015-05-03 10:05:00,
2015-05-03 04:15:00,58.4,30.1,29.55,ENE,65,0.0,0.0,34,0.00,,,0.00,Wunderground v.1.12,2015-05-03 10:15:00,
2015-05-03 04:25:00,57.6,29.4,29.55,ENE,65,0.0,0.0,34,0.00,,,0.00,Wunderground v.1.12,2015-05-03 10:25:00,
2015-05-03 04:30:00,57.3,29.9,29.55,ENE,65,0.0,0.0,35,0.00,,,0.00,Wunderground v.1.12,2015-05-03 10:30:00,
2015-05-03 04:35:00,57.2,29.8,29.55,ENE,65,0.0,0.0,35,0.00,,,0.00,Wunderground v.1.12,2015-05-03 10:35:00,
2015-05-03 04:40:00,56.9,29.5,29.55,ENE,65,0.0,0.0,35,0.00,,,0.00,Wunderground v.1.12,2015-05-03 10:40:00,
2015-05-03 04:45:00,56.7,30.0,29.55,ENE,65,0.0,0.0,36,0.00,,,0.00,Wunderground v.1.12,2015-05-03 10:45:00,
2015-05-03 04:50:00,56.6,29.9,29.55,North,5,0.0,3.0,36,0.00,,,0.00,Wunderground v.1.12,2015-05-03 10:50:00,
2015-05-03 04:55:00,56.6,29.9,29.55,NNE,13,2.0,4.0,36,0.00,,,0.00,Wunderground v.1.12,2015-05-03 10:55:00,
2015-05-03 05:00:00,56.5,29.8,29.55,NNE,13,3.0,3.0,36,0.00,,,0.00,Wunderground v.1.12,2015-05-03 11:00:00,
2015-05-03 05:10:00,56.5,30.5,29.55,NNE,13,0.0,0.0,37,0.00,,,0.00,Wunderground v.1.12,2015-05-03 11:10:00,
2015-05-03 05:15:00,56.5,29.8,29.55,ENE,74,0.0,0.0,36,0.00,,,0.00,Wunderground v.1.12,2015-05-03 11:15:00,
2015-05-03 05:20:00,56.5,30.5,29.55,ENE,74,0.0,0.0,37,0.00,,,0.00,Wunderground v.1.12,2015-05-03 11:20:00,
2015-05-03 05:25:00,56.9,29.5,29.55,ENE,67,2.0,5.0,35,0.00,,,0.00,Wunderground v.1.12,2015-05-03 11:25:00,
2015-05-03 05:30:00,58.1,29.1,29.55,ENE,75,4.0,5.0,33,0.00,,,0.00,Wunderground v.1.12,2015-05-03 11:30:00,
2015-05-03 05:35:00,58.9,29.1,29.55,ENE,74,5.0,5.0,32,0.00,,,0.00,Wunderground v.1.12,2015-05-03 11:35:00,
2015-05-03 05:40:00,58.9,29.8,29.55,SSE,159,2.0,2.0,33,0.00,,,0.00,Wunderground v.1.12,2015-05-03 11:40:00,
2015-05-03 05:45:00,58.6,30.3,29.55,SSE,159,0.0,0.0,34,0.00,,,0.00,Wunderground v.1.12,2015-05-03 11:45:00,
2015-05-03 05:50:00,58.1,29.8,29.55,SSE,159,0.0,0.0,34,0.00,,,0.00,Wunderground v.1.12,2015-05-03 11:50:00,
2015-05-03 06:00:00,57.0,30.3,29.55,SSE,159,0.0,0.0,36,0.00,,,0.00,Wunderground v.1.12,2015-05-03 12:00:00,
2015-05-03 06:05:00,56.7,30.7,29.55,SSE,159,0.0,0.0,37,0.00,,,0.00,Wunderground v.1.12,2015-05-03 12:05:00,
2015-05-03 06:10:00,56.5,30.5,29.55,SSE,159,0.0,0.0,37,0.00,,,0.00,Wunderground v.1.12,2015-05-03 12:10:00,
2015-05-03 06:15:00,56.2,30.2,29.55,SSE,159,0.0,0.0,37,0.00,,,0.00,Wunderground v.1.12,2015-05-03 12:15:00,
2015-05-03 06:20:00,55.9,30.6,29.55,SSE,159,0.0,0.0,38,0.00,,,0.00,Wunderground v.1.12,2015-05-03 12:20:00,
2015-05-03 06:25:00,55.9,31.3,29.56,SSE,159,0.0,0.0,39,0.00,,,0.00,Wunderground v.1.12,2015-05-03 12:25:00,
2015-05-03 06:35:00,55.9,31.3,29.56,SSE,159,0.0,0.0,39,0.00,,,0.00,Wunderground v.1.12,2015-05-03 12:35:00,
2015-05-03 06:45:00,55.9,31.3,29.56,SSE,159,0.0,0.0,39,0.00,,,0.00,Wunderground v.1.12,2015-05-03 12:45:00,
2015-05-03 06:50:00,56.0,31.4,29.56,SSE,159,0.0,0.0,39,0.00,,,0.00,Wunderground v.1.12,2015-05-03 12:50:00,
2015-05-03 06:55:00,56.2,31.5,29.57,SSE,159,0.0,0.0,39,0.00,,,0.00,Wunderground v.1.12,2015-05-03 12:55:00,
2015-05-03 07:00:00,56.3,31.0,29.57,SSE,159,0.0,0.0,38,0.00,,,0.00,Wunderground v.1.12,2015-05-03 13:00:00,
2015-05-03 07:10:00,56.7,31.4,29.57,SSE,159,0.0,0.0,38,0.00,,,0.00,Wunderground v.1.12,2015-05-03 13:10:00,
2015-05-03 07:15:00,57.3,33.2,29.57,SSE,155,0.0,0.0,40,0.00,,,0.00,Wunderground v.1.12,2015-05-03 13:15:00,
2015-05-03 07:20:00,57.6,34.1,29.57,SSE,155,0.0,0.0,41,0.00,,,0.00,Wunderground v.1.12,2015-05-03 13:20:00,
2015-05-03 07:30:00,57.8,34.8,29.59,SSE,155,0.0,0.0,42,0.00,,,0.00,Wunderground v.1.12,2015-05-03 13:30:00,
2015-05-03 07:35:00,57.8,34.2,29.59,SSE,155,0.0,0.0,41,0.00,,,0.00,Wunderground v.1.12,2015-05-03 13:35:00,
2015-05-03 07:40:00,58.0,35.6,29.59,SSE,155,0.0,0.0,43,0.00,,,0.00,Wunderground v.1.12,2015-05-03 13:40:00,
2015-05-03 07:45:00,58.0,33.2,29.59,SE,142,0.0,0.0,39,0.00,,,0.00,Wunderground v.1.12,2015-05-03 13:45:00,
2015-05-03 07:50:00,58.9,34.0,29.59,ESE,105,1.0,2.0,39,0.00,,,0.00,Wunderground v.1.12,2015-05-03 13:50:00,
2015-05-03 07:55:00,59.5,35.8,29.60,WNW,288,1.0,2.0,41,0.00,,,0.00,Wunderground v.1.12,2015-05-03 13:55:00,
2015-05-03 08:00:00,59.6,34.6,29.60,SSE,151,1.0,1.0,39,0.00,,,0.00,Wunderground v.1.12,2015-05-03 14:00:00,
2015-05-03 08:10:00,59.9,34.2,29.61,WSW,242,2.0,3.0,38,0.00,,,0.00,Wunderground v.1.12,2015-05-03 14:10:00,
2015-05-03 08:20:00,60.1,35.0,29.61,SSW,213,2.0,4.0,39,0.00,,,0.00,Wunderground v.1.12,2015-05-03 14:20:00,
2015-05-03 08:25:00,60.5,35.4,29.61,SSE,164,3.0,3.0,39,0.00,,,0.00,Wunderground v.1.12,2015-05-03 14:25:00,
2015-05-03 08:30:00,60.9,35.8,29.61,ESE,103,4.0,4.0,39,0.00,,,0.00,Wunderground v.1.12,2015-05-03 14:30:00,
2015-05-03 08:35:00,61.6,35.7,29.61,SE,126,5.0,12.0,38,0.00,,,0.00,Wunderground v.1.12,2015-05-03 14:35:00,
2015-05-03 08:40:00,63.1,35.0,29.61,East,90,8.0,8.0,35,0.00,,,0.00,Wunderground v.1.12,2015-05-03 14:40:00,
2015-05-03 08:45:00,64.7,34.1,29.61,ESE,120,10.0,18.0,32,0.00,,,0.00,Wunderground v.1.12,2015-05-03 14:45:00,
2015-05-03 08:55:00,65.0,34.4,29.61,SE,137,6.0,14.0,32,0.00,,,0.00,Wunderground v.1.12,2015-05-03 14:55:00,
2015-05-03 09:05:00,64.7,35.7,29.61,ESE,105,7.0,7.0,34,0.00,,,0.00,Wunderground v.1.12,2015-05-03 15:05:00,
2015-05-03 09:10:00,64.5,35.5,29.62,ESE,103,7.0,7.0,34,0.00,,,0.00,Wunderground v.1.12,2015-05-03 15:10:00,
2015-05-03 09:15:00,64.5,35.5,29.62,East,101,6.0,6.0,34,0.00,,,0.00,Wunderground v.1.12,2015-05-03 15:15:00,
2015-05-03 09:20:00,64.7,35.7,29.62,East,82,3.0,3.0,34,0.00,,,0.00,Wunderground v.1.12,2015-05-03 15:20:00,
2015-05-03 09:25:00,64.8,35.0,29.61,ESE,112,3.0,4.0,33,0.00,,,0.00,Wunderground v.1.12,2015-05-03 15:25:00,
2015-05-03 09:30:00,65.0,35.2,29.61,ESE,121,3.0,3.0,33,0.00,,,0.00,Wunderground v.1.12,2015-05-03 15:30:00,
2015-05-03 09:35:00,65.2,35.4,29.61,SSE,163,2.0,2.0,33,0.00,,,0.00,Wunderground v.1.12,2015-05-03 15:35:00,
2015-05-03 09:45:00,65.5,36.4,29.61,SW,219,0.0,1.0,34,0.00,,,0.00,Wunderground v.1.12,2015-05-03 15:45:00,
2015-05-03 09:50:00,65.3,36.9,29.61,WNW,284,1.0,1.0,35,0.00,,,0.00,Wunderground v.1.12,2015-05-03 15:50:00,
2015-05-03 09:55:00,65.2,37.6,29.61,WNW,284,1.0,1.0,36,0.00,,,0.00,Wunderground v.1.12,2015-05-03 15:55:00,
2015-05-03 10:00:00,64.8,36.5,29.61,WNW,284,2.0,5.0,35,0.00,,,0.00,Wunderground v.1.12,2015-05-03 16:00:00,
2015-05-03 10:05:00,64.8,35.8,29.61,West,273,3.0,3.0,34,0.00,,,0.00,Wunderground v.1.12,2015-05-03 16:05:00,
2015-05-03 10:10:00,64.8,36.5,29.61,West,273,1.0,1.0,35,0.00,,,0.00,Wunderground v.1.12,2015-05-03 16:10:00,
2015-05-03 10:20:00,65.0,37.4,29.61,NNW,346,0.0,0.0,36,0.00,,,0.00,Wunderground v.1.12,2015-05-03 16:20:00,
2015-05-03 10:25:00,65.0,36.7,29.62,NNW,344,0.0,0.0,35,0.00,,,0.00,Wunderground v.1.12,2015-05-03 16:25:00,
2015-05-03 10:30:00,65.2,37.6,29.62,WNW,290,0.0,3.0,36,0.00,,,0.00,Wunderground v.1.12,2015-05-03 16:30:00,
2015-05-03 10:35:00,65.3,36.9,29.62,WNW,303,1.0,1.0,35,0.00,,,0.00,Wunderground v.1.12,2015-05-03 16:35:00,
2015-05-03 10:40:00,65.5,37.8,29.62,WNW,303,1.0,1.0,36,0.00,,,0.00,Wunderground v.1.12,2015-05-03 16:40:00,
2015-05-03 10:45:00,65.6,37.9,29.62,WNW,303,0.0,0.0,36,0.00,,,0.00,Wunderground v.1.12,2015-05-03 16:45:00,
2015-05-03 10:50:00,65.8,36.6,29.62,WNW,303,0.0,0.0,34,0.00,,,0.00,Wunderground v.1.12,2015-05-03 16:50:00,
2015-05-03 10:55:00,66.1,37.6,29.62,WNW,303,0.0,0.0,35,0.00,,,0.00,Wunderground v.1.12,2015-05-03 16:55:00,
2015-05-03 11:00:00,66.3,37.8,29.62,WSW,243,0.0,3.0,35,0.00,,,0.00,Wunderground v.1.12,2015-05-03 17:00:00,
2015-05-03 11:10:00,66.6,36.6,29.63,WSW,246,0.0,0.0,33,0.00,,,0.00,Wunderground v.1.12,2015-05-03 17:10:00,
2015-05-03 11:15:00,66.8,36.0,29.63,SSW,194,0.0,0.0,32,0.00,,,0.00,Wunderground v.1.12,2015-05-03 17:15:00,
2015-05-03 11:20:00,67.4,38.0,29.63,ESE,113,0.0,3.0,34,0.00,,,0.00,Wunderground v.1.12,2015-05-03 17:20:00,
2015-05-03 11:25:00,68.8,34.3,29.62,SE,134,2.0,12.0,28,0.00,,,0.00,Wunderground v.1.12,2015-05-03 17:25:00,
2015-05-03 11:35:00,71.1,34.5,29.62,South,173,7.0,9.0,26,0.00,,,0.00,Wunderground v.1.12,2015-05-03 17:35:00,
2015-05-03 11:40:00,71.8,34.1,29.62,SE,137,7.0,7.0,25,0.00,,,0.00,Wunderground v.1.12,2015-05-03 17:40:00,
2015-05-03 11:45:00,72.1,33.3,29.62,SE,143,5.0,11.0,24,0.00,,,0.00,Wunderground v.1.12,2015-05-03 17:45:00,
2015-05-03 11:50:00,72.5,34.7,29.62,South,191,5.0,5.0,25,0.00,,,0.00,Wunderground v.1.12,2015-05-03 17:50:00,
2015-05-03 11:55:00,72.7,32.7,29.62,WSW,250,6.0,10.0,23,0.00,,,0.00,Wunderground v.1.12,2015-05-03 17:55:00,
2015-05-03 12:00:00,72.5,32.6,29.62,WSW,256,7.0,7.0,23,0.00,,,0.00,Wunderground v.1.12,2015-05-03 18:00:00,
2015-05-03 12:10:00,72.5,33.6,29.62,SSW,201,3.0,7.0,24,0.00,,,0.00,Wunderground v.1.12,2015-05-03 18:10:00,
2015-05-03 12:15:00,72.5,34.7,29.62,SSE,149,2.0,2.0,25,0.00,,,0.00,Wunderground v.1.12,2015-05-03 18:15:00,
2015-05-03 12:20:00,72.7,33.8,29.62,WSW,247,2.0,5.0,24,0.00,,,0.00,Wunderground v.1.12,2015-05-03 18:20:00,
2015-05-03 12:25:00,73.0,36.1,29.61,West,275,1.0,4.0,26,0.00,,,0.00,Wunderground v.1.12,2015-05-03 18:25:00,
2015-05-03 12:30:00,73.2,36.2,29.61,West,263,3.0,10.0,26,0.00,,,0.00,Wunderground v.1.12,2015-05-03 18:30:00,
2015-05-03 12:35:00,73.3,36.3,29.61,WSW,245,7.0,7.0,26,0.00,,,0.00,Wunderground v.1.12,2015-05-03 18:35:00,
2015-05-03 12:40:00,73.3,35.3,29.61,SW,232,8.0,8.0,25,0.00,,,0.00,Wunderground v.1.12,2015-05-03 18:40:00,
2015-05-03 12:45:00,72.8,35.9,29.61,SW,232,6.0,6.0,26,0.00,,,0.00,Wunderground v.1.12,2015-05-03 18:45:00,
2015-05-03 12:50:00,72.1,36.3,29.61,SW,226,5.0,5.0,27,0.00,,,0.00,Wunderground v.1.12,2015-05-03 18:50:00,
2015-05-03 13:00:00,71.1,35.4,29.61,West,261,2.0,2.0,27,0.00,,,0.00,Wunderground v.1.12,2015-05-03 19:00:00,
2015-05-03 13:05:00,70.8,35.1,29.61,SW,223,1.0,2.0,27,0.00,,,0.00,Wunderground v.1.12,2015-05-03 19:05:00,
2015-05-03 13:10:00,70.8,35.1,29.60,WSW,251,1.0,1.0,27,0.00,,,0.00,Wunderground v.1.12,2015-05-03 19:10:00,
2015-05-03 13:15:00,71.1,34.5,29.60,WSW,243,1.0,2.0,26,0.00,,,0.00,Wunderground v.1.12,2015-05-03 19:15:00,
2015-05-03 13:20:00,71.8,33.0,29.60,WNW,284,1.0,1.0,24,0.00,,,0.00,Wunderground v.1.12,2015-05-03 19:20:00,
2015-05-03 13:25:00,72.7,33.8,29.59,WSW,252,3.0,3.0,24,0.00,,,0.00,Wunderground v.1.12,2015-05-03 19:25:00,
2015-05-03 13:30:00,73.3,33.2,29.59,SW,226,4.0,4.0,23,0.00,,,0.00,Wunderground v.1.12,2015-05-03 19:30:00,
2015-05-03 13:40:00,74.4,34.2,29.58,SW,232,5.0,13.0,23,0.00,,,0.00,Wunderground v.1.12,2015-05-03 19:40:00,
2015-05-03 13:45:00,74.6,34.3,29.58,SW,217,6.0,6.0,23,0.00,,,0.00,Wunderground v.1.12,2015-05-03 19:45:00,
2015-05-03 13:50:00,74.7,34.4,29.58,South,175,5.0,5.0,23,0.00,,,0.00,Wunderground v.1.12,2015-05-03 19:50:00,
2015-05-03 13:55:00,75.3,33.8,29.57,South,182,5.0,5.0,22,0.00,,,0.00,Wunderground v.1.12,2015-05-03 19:55:00,
2015-05-03 14:05:00,74.0,33.8,29.57,South,186,3.0,13.0,23,0.00,,,0.00,Wunderground v.1.12,2015-05-03 20:05:00,
2015-05-03 14:10:00,74.6,34.3,29.57,SSE,157,5.0,5.0,23,0.00,,,0.00,Wunderground v.1.12,2015-05-03 20:10:00,
2015-05-03 14:15:00,75.1,34.8,29.57,SSW,211,5.0,5.0,23,0.00,,,0.00,Wunderground v.1.12,2015-05-03 20:15:00,
2015-05-03 14:25:00,74.9,34.6,29.57,South,177,2.0,2.0,23,0.00,,,0.00,Wunderground v.1.12,2015-05-03 20:25:00,
2015-05-03 14:30:00,74.9,36.7,29.57,South,173,6.0,12.0,25,0.00,,,0.00,Wunderground v.1.12,2015-05-03 20:30:00,
2015-05-03 14:35:00,74.6,35.4,29.57,SE,143,9.0,17.0,24,0.00,,,0.00,Wunderground v.1.12,2015-05-03 20:35:00,
2015-05-03 14:40:00,74.0,35.9,29.56,SE,139,11.0,14.0,25,0.00,,,0.00,Wunderground v.1.12,2015-05-03 20:40:00,
2015-05-03 14:45:00,73.3,34.3,29.56,SE,137,12.0,16.0,24,0.00,,,0.00,Wunderground v.1.12,2015-05-03 20:45:00,
2015-05-03 14:50:00,72.7,33.8,29.56,SE,129,14.0,17.0,24,0.00,,,0.00,Wunderground v.1.12,2015-05-03 20:50:00,
2015-05-03 14:55:00,72.3,33.5,29.56,SE,128,14.0,14.0,24,0.00,,,0.00,Wunderground v.1.12,2015-05-03 20:55:00,
2015-05-03 15:00:00,72.1,33.3,29.56,SSE,155,13.0,13.0,24,0.00,,,0.00,Wunderground v.1.12,2015-05-03 21:00:00,
2015-05-03 15:05:00,72.0,32.1,29.56,SE,130,13.0,13.0,23,0.00,,,0.00,Wunderground v.1.12,2015-05-03 21:05:00,
2015-05-03 15:10:00,72.0,33.2,29.56,SE,136,13.0,13.0,24,0.00,,,0.00,Wunderground v.1.12,2015-05-03 21:10:00,
2015-05-03 15:15:00,72.3,33.5,29.56,ESE,123,9.0,9.0,24,0.00,,,0.00,Wunderground v.1.12,2015-05-03 21:15:00,
2015-05-03 15:20:00,72.1,33.3,29.56,ESE,113,8.0,8.0,24,0.00,,,0.00,Wunderground v.1.12,2015-05-03 21:20:00,
2015-05-03 15:30:00,73.2,34.2,29.56,SE,127,8.0,11.0,24,0.00,,,0.00,Wunderground v.1.12,2015-05-03 21:30:00,
2015-05-03 15:35:00,73.9,33.7,29.56,SE,128,6.0,6.0,23,0.00,,,0.00,Wunderground v.1.12,2015-05-03 21:35:00,
2015-05-03 15:40:00,74.2,34.0,29.54,South,185,5.0,7.0,23,0.00,,,0.00,Wunderground v.1.12,2015-05-03 21:40:00,
2015-05-03 15:45:00,74.6,33.2,29.54,SSE,163,5.0,5.0,22,0.00,,,0.00,Wunderground v.1.12,2015-05-03 21:45:00,
2015-05-03 15:50:00,75.1,34.8,29.54,SSE,156,4.0,4.0,23,0.00,,,0.00,Wunderground v.1.12,2015-05-03 21:50:00,
2015-05-03 15:55:00,76.0,34.4,29.54,South,175,3.0,4.0,22,0.00,,,0.00,Wunderground v.1.12,2015-05-03 21:55:00,
2015-05-03 16:00:00,76.0,34.4,29.54,SE,134,3.0,9.0,22,0.00,,,0.00,Wunderground v.1.12,2015-05-03 22:00:00,
2015-05-03 16:10:00,73.9,33.7,29.52,SSE,149,8.0,10.0,23,0.00,,,0.00,Wunderground v.1.12,2015-05-03 22:10:00,
2015-05-03 16:20:00,73.9,33.7,29.52,SSE,161,6.0,6.0,23,0.00,,,0.00,Wunderground v.1.12,2015-05-03 22:20:00,
2015-05-03 16:25:00,74.2,34.0,29.52,SSE,152,4.0,4.0,23,0.00,,,0.00,Wunderground v.1.12,2015-05-03 22:25:00,
2015-05-03 16:30:00,74.4,34.2,29.52,SE,138,3.0,13.0,23,0.00,,,0.00,Wunderground v.1.12,2015-05-03 22:30:00,
2015-05-03 16:35:00,74.0,34.9,29.52,ESE,119,4.0,6.0,24,0.00,,,0.00,Wunderground v.1.12,2015-05-03 22:35:00,
2015-05-03 16:40:00,74.2,34.0,29.52,SSE,155,5.0,5.0,23,0.00,,,0.00,Wunderground v.1.12,2015-05-03 22:40:00,
2015-05-03 16:45:00,74.2,34.0,29.52,SE,135,4.0,7.0,23,0.00,,,0.00,Wunderground v.1.12,2015-05-03 22:45:00,
2015-05-03 16:50:00,74.6,34.3,29.52,SSW,198,4.0,4.0,23,0.00,,,0.00,Wunderground v.1.12,2015-05-03 22:50:00,
2015-05-03 16:55:00,74.9,34.6,29.51,SE,142,5.0,6.0,23,0.00,,,0.00,Wunderground v.1.12,2015-05-03 22:55:00,
2015-05-03 17:00:00,74.9,33.5,29.51,SE,144,5.0,5.0,22,0.00,,,0.00,Wunderground v.1.12,2015-05-03 23:00:00,
2015-05-03 17:10:00,75.3,33.8,29.50,SSW,200,2.0,2.0,22,0.00,,,0.00,Wunderground v.1.12,2015-05-03 23:10:00,
2015-05-03 17:20:00,76.1,34.5,29.50,SE,134,3.0,3.0,22,0.00,,,0.00,Wunderground v.1.12,2015-05-03 23:20:00,
2015-05-03 17:30:00,76.5,33.6,29.50,SW,217,3.0,3.0,21,0.00,,,0.00,Wunderground v.1.12,2015-05-03 23:30:00,
2015-05-03 17:35:00,76.1,34.5,29.50,South,178,5.0,10.0,22,0.00,,,0.00,Wunderground v.1.12,2015-05-03 23:35:00,
2015-05-03 17:40:00,76.0,33.2,29.50,South,186,6.0,6.0,21,0.00,,,0.00,Wunderground v.1.12,2015-05-03 23:40:00,
2015-05-03 17:45:00,76.1,33.3,29.50,SSW,195,4.0,10.0,21,0.00,,,0.00,Wunderground v.1.12,2015-05-03 23:45:00,
2015-05-03 17:50:00,76.0,34.4,29.50,SSE,151,4.0,4.0,22,0.00,,,0.00,Wunderground v.1.12,2015-05-03 23:50:00,
2015-05-03 18:00:00,76.3,33.5,29.50,SE,127,3.0,5.0,21,0.00,,,0.00,Wunderground v.1.12,2015-05-04 00:00:00,
2015-05-03 18:05:00,76.3,33.5,29.50,South,186,4.0,4.0,21,0.00,,,0.00,Wunderground v.1.12,2015-05-04 00:05:00,
2015-05-03 18:10:00,76.3,33.5,29.50,South,169,4.0,9.0,21,0.00,,,0.00,Wunderground v.1.12,2015-05-04 00:10:00,
2015-05-03 18:15:00,76.3,33.5,29.50,SE,144,4.0,10.0,21,0.00,,,0.00,Wunderground v.1.12,2015-05-04 00:15:00,
2015-05-03 18:20:00,76.1,34.5,29.50,South,184,5.0,5.0,22,0.00,,,0.00,Wunderground v.1.12,2015-05-04 00:20:00,
2015-05-03 18:25:00,76.3,32.3,29.50,South,181,5.0,5.0,20,0.00,,,0.00,Wunderground v.1.12,2015-05-04 00:25:00,
2015-05-03 18:30:00,76.5,32.4,29.50,SE,145,5.0,12.0,20,0.00,,,0.00,Wunderground v.1.12,2015-05-04 00:30:00,
2015-05-03 18:35:00,76.5,33.6,29.50,SSE,151,5.0,5.0,21,0.00,,,0.00,Wunderground v.1.12,2015-05-04 00:35:00,
2015-05-03 18:40:00,76.5,32.4,29.51,SSW,209,6.0,6.0,20,0.00,,,0.00,Wunderground v.1.12,2015-05-04 00:40:00,
2015-05-03 18:45:00,76.1,32.1,29.51,SE,138,7.0,7.0,20,0.00,,,0.00,Wunderground v.1.12,2015-05-04 00:45:00,
2015-05-03 18:55:00,74.7,33.3,29.50,SE,146,7.0,15.0,22,0.00,,,0.00,Wunderground v.1.12,2015-05-04 00:55:00,
2015-05-03 19:00:00,74.0,32.7,29.50,SSE,164,11.0,11.0,22,0.00,,,0.00,Wunderground v.1.12,2015-05-04 01:00:00,
2015-05-03 19:05:00,73.9,32.6,29.50,SE,134,11.0,19.0,22,0.00,,,0.00,Wunderground v.1.12,2015-05-04 01:05:00,
2015-05-03 19:10:00,73.2,34.2,29.50,SE,145,13.0,18.0,24,0.00,,,0.00,Wunderground v.1.12,2015-05-04 01:10:00,
2015-05-03 19:15:00,72.1,34.3,29.50,SSE,150,16.0,22.0,25,0.00,,,0.00,Wunderground v.1.12,2015-05-04 01:15:00,
2015-05-03 19:20:00,70.8,34.2,29.50,SSE,147,18.0,23.0,26,0.00,,,0.00,Wunderground v.1.12,2015-05-04 01:20:00,
2015-05-03 19:25:00,69.6,34.1,29.51,SE,140,19.0,23.0,27,0.00,,,0.00,Wunderground v.1.12,2015-05-04 01:25:00,
2015-05-03 19:30:00,69.1,34.6,29.51,SE,144,19.0,19.0,28,0.00,,,0.00,Wunderground v.1.12,2015-05-04 01:30:00,
2015-05-03 19:40:00,68.3,33.9,29.52,SE,135,17.0,17.0,28,0.00,,,0.00,Wunderground v.1.12,2015-05-04 01:40:00,
2015-05-03 19:50:00,67.8,34.4,29.52,SE,134,10.0,21.0,29,0.00,,,0.00,Wunderground v.1.12,2015-05-04 01:50:00,
2015-05-03 19:55:00,67.6,34.2,29.52,SE,143,16.0,21.0,29,0.00,,,0.00,Wunderground v.1.12,2015-05-04 01:55:00,
2015-05-03 20:00:00,67.3,34.8,29.52,ESE,123,20.0,26.0,30,0.00,,,0.00,Wunderground v.1.12,2015-05-04 02:00:00,
2015-05-03 20:05:00,67.1,34.6,29.52,SE,146,19.0,25.0,30,0.00,,,0.00,Wunderground v.1.12,2015-05-04 02:05:00,
2015-05-03 20:10:00,66.9,35.3,29.52,SSE,148,18.0,19.0,31,0.00,,,0.00,Wunderground v.1.12,2015-05-04 02:10:00,
2015-05-03 20:15:00,66.8,35.2,29.52,SE,141,18.0,23.0,31,0.00,,,0.00,Wunderground v.1.12,2015-05-04 02:15:00,
2015-05-03 20:25:00,66.4,34.8,29.53,South,190,15.0,16.0,31,0.00,,,0.00,Wunderground v.1.12,2015-05-04 02:25:00,
2015-05-03 20:30:00,66.3,35.5,29.53,SSE,161,17.0,17.0,32,0.00,,,0.00,Wunderground v.1.12,2015-05-04 02:30:00,
2015-05-03 20:35:00,66.1,35.4,29.53,SE,142,17.0,17.0,32,0.00,,,0.00,Wunderground v.1.12,2015-05-04 02:35:00,
2015-05-03 20:40:00,66.1,35.4,29.53,SE,126,16.0,28.0,32,0.00,,,0.00,Wunderground v.1.12,2015-05-04 02:40:00,
2015-05-03 20:45:00,66.1,35.4,29.53,SSE,147,17.0,24.0,32,0.00,,,0.00,Wunderground v.1.12,2015-05-04 02:45:00,
2015-05-03 20:50:00,66.1,35.4,29.53,SSE,151,16.0,16.0,32,0.00,,,0.00,Wunderground v.1.12,2015-05-04 02:50:00,
2015-05-03 20:55:00,65.8,35.9,29.53,SE,126,12.0,12.0,33,0.00,,,0.00,Wunderground v.1.12,2015-05-04 02:55:00,
2015-05-03 21:00:00,65.6,35.7,29.53,SE,136,13.0,16.0,33,0.00,,,0.00,Wunderground v.1.12,2015-05-04 03:00:00,
2015-05-03 21:05:00,65.5,35.6,29.53,ESE,122,15.0,15.0,33,0.00,,,0.00,Wunderground v.1.12,2015-05-04 03:05:00,
2015-05-03 21:15:00,65.2,36.8,29.54,ESE,112,13.0,21.0,35,0.00,,,0.00,Wunderground v.1.12,2015-05-04 03:15:00,
2015-05-03 21:20:00,65.2,36.8,29.54,SE,135,13.0,19.0,35,0.00,,,0.00,Wunderground v.1.12,2015-05-04 03:20:00,
2015-05-03 21:25:00,65.2,36.8,29.55,ESE,123,14.0,17.0,35,0.00,,,0.00,Wunderground v.1.12,2015-05-04 03:25:00,
2015-05-03 21:30:00,65.0,39.4,29.55,ESE,119,14.0,14.0,39,0.00,,,0.00,Wunderground v.1.12,2015-05-04 03:30:00,
2015-05-03 21:35:00,65.0,36.7,29.55,ESE,120,14.0,14.0,35,0.00,,,0.00,Wunderground v.1.12,2015-05-04 03:35:00,
2015-05-03 21:40:00,65.3,36.2,29.55,ESE,113,12.0,12.0,34,0.00,,,0.00,Wunderground v.1.12,2015-05-04 03:40:00,
2015-05-03 21:50:00,65.6,35.7,29.55,ESE,104,10.0,10.0,33,0.00,,,0.00,Wunderground v.1.12,2015-05-04 03:50:00,
2015-05-03 21:55:00,65.6,35.7,29.56,SSE,147,8.0,8.0,33,0.00,,,0.00,Wunderground v.1.12,2015-05-04 03:55:00,
2015-05-03 22:00:00,65.8,35.9,29.56,ESE,103,6.0,6.0,33,0.00,,,0.00,Wunderground v.1.12,2015-05-04 04:00:00,
2015-05-03 22:05:00,65.8,35.1,29.56,SE,124,4.0,4.0,32,0.00,,,0.00,Wunderground v.1.12,2015-05-04 04:05:00,
2015-05-03 22:10:00,65.8,35.1,29.57,SSE,163,3.0,3.0,32,0.00,,,0.00,Wunderground v.1.12,2015-05-04 04:10:00,
2015-05-03 22:15:00,65.8,35.1,29.57,SSE,147,2.0,2.0,32,0.00,,,0.00,Wunderground v.1.12,2015-05-04 04:15:00,
2015-05-03 22:20:00,65.8,35.1,29.57,SSE,152,3.0,3.0,32,0.00,,,0.00,Wunderground v.1.12,2015-05-04 04:20:00,
2015-05-03 22:25:00,65.8,34.3,29.57,SE,126,2.0,6.0,31,0.00,,,0.00,Wunderground v.1.12,2015-05-04 04:25:00,
2015-05-03 22:35:00,66.1,33.7,29.57,ESE,123,3.0,3.0,30,0.00,,,0.00,Wunderground v.1.12,2015-05-04 04:35:00,
2015-05-03 22:40:00,66.1,34.6,29.57,SW,229,2.0,2.0,31,0.00,,,0.00,Wunderground v.1.12,2015-05-04 04:40:00,
2015-05-03 22:45:00,66.0,35.3,29.57,WNW,284,0.0,0.0,32,0.00,,,0.00,Wunderground v.1.12,2015-05-04 04:45:00,
2015-05-03 22:50:00,65.6,36.5,29.57,NW,312,0.0,0.0,34,0.00,,,0.00,Wunderground v.1.12,2015-05-04 04:50:00,
2015-05-03 22:55:00,65.0,36.7,29.58,NW,311,0.0,4.0,35,0.00,,,0.00,Wunderground v.1.12,2015-05-04 04:55:00,
2015-05-03 23:00:00,64.3,36.8,29.58,NW,313,2.0,2.0,36,0.00,,,0.00,Wunderground v.1.12,2015-05-04 05:00:00,
2015-05-03 23:05:00,63.7,36.9,29.58,NNE,18,3.0,3.0,37,0.00,,,0.00,Wunderground v.1.12,2015-05-04 05:05:00,
2015-05-03 23:15:00,63.2,37.2,29.58,North,5,3.0,3.0,38,0.00,,,0.00,Wunderground v.1.12,2015-05-04 05:15:00,
2015-05-03 23:20:00,62.9,37.5,29.58,North,9,2.0,2.0,39,0.00,,,0.00,Wunderground v.1.12,2015-05-04 05:20:00,